NC2C Weather Reports


Display with metric or nautical units.
time (UTC)temp
F
wind
direction
speed
MPH
gust
MPH
rain 1hr
in
rain 24hr
in
rain mn
in
humidity
%
barometer
mb
20260504081842 48 247 5.0 11.0 0.00 0.00 0.00 59 1008.2
20260504081330 48 223 6.0 11.0 0.00 0.00 0.00 59 1008.2
20260504080839 48 182 4.0 11.0 0.00 0.00 0.00 59 1008.2
20260504080326 48 215 7.0 11.0 0.00 0.00 0.00 59 1008.3
20260504070321 49 198 4.0 12.0 0.00 0.00 0.00 59 1007.9
20260504050316 50 189 5.0 9.0 0.00 0.00 0.00 61 1008.3
20260504045826 50 200 5.0 6.0 0.00 0.00 0.00 61 1008.3
20260504045335 49 191 3.0 6.0 0.00 0.00 0.00 61 1008.3
20260504044837 50 213 3.0 5.0 0.00 0.00 0.00 61 1008.4
20260504044338 50 194 3.0 7.0 0.00 0.00 0.00 61 1008.4
20260504043825 50 200 3.0 7.0 0.00 0.00 0.00 61 1008.5
20260504043332 50 201 4.0 9.0 0.00 0.00 0.00 60 1008.5
20260504042821 50 223 5.0 9.0 0.00 0.00 0.00 61 1008.5
20260504042329 50 194 3.0 5.0 0.00 0.00 0.00 61 1008.6
20260504041831 50 187 2.0 5.0 0.00 0.00 0.00 61 1008.6
20260504041321 50 195 1.0 3.0 0.00 0.00 0.00 61 1008.8
20260504040824 50 205 2.0 3.0 0.00 0.00 0.00 61 1008.8
20260504040326 50 213 1.0 3.0 0.00 0.00 0.00 61 1008.8
20260504035849 50 249 1.0 4.0 0.00 0.00 0.00 61 1008.9
20260504035315 50 257 2.0 7.0 0.00 0.00 0.00 61 1009.0
20260504034824 50 302 5.0 13.0 0.00 0.00 0.00 60 1009.1
20260504034332 50 295 4.0 14.0 0.00 0.00 0.00 61 1009.2
20260504033821 50 246 8.0 11.0 0.00 0.00 0.00 60 1009.2
20260504033326 50 280 3.0 8.0 0.00 0.00 0.00 59 1009.2
20260504032813 50 277 3.0 5.0 0.00 0.00 0.00 59 1009.1
20260504032343 50 255 2.0 5.0 0.00 0.00 0.00 59 1009.1
20260504031851 50 268 2.0 6.0 0.00 0.00 0.00 59 1009.2
20260504031319 50 284 2.0 11.0 0.00 0.00 0.00 59 1009.2
20260504030829 50 308 4.0 12.0 0.00 0.00 0.00 59 1009.1
20260504030335 50 305 5.0 12.0 0.00 0.00 0.00 59 1009.2
20260504025844 50 279 4.0 12.0 0.00 0.00 0.00 59 1009.2
20260504025332 50 271 3.0 12.0 0.00 0.00 0.00 59 1009.2
20260504024820 50 238 6.0 12.0 0.00 0.00 0.00 59 1009.2
20260504024348 50 272 6.0 10.0 0.00 0.00 0.00 59 1009.3
20260504023813 50 195 4.0 6.0 0.00 0.00 0.00 59 1009.2
20260504023323 50 291 1.0 9.0 0.00 0.00 0.00 59 1009.2
20260504022828 49 268 2.0 11.0 0.00 0.00 0.00 60 1009.3
20260504022330 49 323 5.0 11.0 0.00 0.00 0.00 61 1009.4
20260504021820 48 275 5.0 13.0 0.00 0.00 0.00 63 1009.4
20260504021322 45 226 8.0 13.0 0.00 0.00 0.00 68 1009.3
20260504020830 44 178 2.0 3.0 0.00 0.00 0.00 69 1009.3
20260504020340 44 178 1.0 3.0 0.00 0.00 0.00 69 1009.2
20260504015826 44 178 2.0 3.0 0.00 0.00 0.00 69 1009.2
20260504015331 44 178 2.0 2.0 0.00 0.00 0.00 68 1009.2
20260504014819 44 178 0.0 2.0 0.00 0.00 0.00 68 1009.1
20260504014328 44 178 0.0 2.0 0.00 0.00 0.00 68 1008.9
20260504013818 45 179 0.0 1.0 0.00 0.00 0.00 67 1008.9
20260504013326 45 178 0.0 2.0 0.00 0.00 0.00 65 1009.0
20260504012813 45 179 1.0 2.0 0.00 0.00 0.00 65 1009.0
20260504012324 45 178 2.0 3.0 0.00 0.00 0.00 65 1009.1
20260504011831 46 178 1.0 3.0 0.00 0.00 0.00 64 1009.2
20260504011317 46 171 0.0 2.0 0.00 0.00 0.00 64 1009.3
20260504010823 47 196 1.0 2.0 0.00 0.00 0.00 61 1009.3
20260504010331 47 286 0.0 1.0 0.00 0.00 0.00 60 1009.2
20260504005819 47 286 0.0 1.0 0.00 0.00 0.00 59 1009.1
20260504005328 48 286 0.0 0.0 0.00 0.00 0.00 58 1009.0
20260504004838 48 286 0.0 0.0 0.00 0.00 0.00 58 1008.9
20260504004320 49 286 0.0 0.0 0.00 0.00 0.00 57 1008.9
20260504003829 49 286 0.0 0.0 0.00 0.00 0.00 56 1008.8
20260504003315 50 286 0.0 1.0 0.00 0.00 0.00 54 1008.7
20260504002823 50 286 1.0 2.0 0.00 0.00 0.00 54 1008.6
20260504002332 50 286 0.0 2.0 0.00 0.00 0.00 53 1008.5
20260504001821 50 286 1.0 2.0 0.00 0.00 0.00 53 1008.6
20260504001351 50 284 1.0 4.0 0.00 0.00 0.00 53 1008.5
20260504000839 50 282 1.0 5.0 0.00 0.00 0.00 52 1008.5
20260504000326 51 265 3.0 5.0 0.00 0.00 0.00 52 1008.4
20260503235830 51 287 3.0 9.0 0.00 0.00 0.00 52 1008.4
20260503235318 51 289 4.0 9.0 0.00 0.00 0.00 52 1008.4
20260503234826 51 306 2.0 6.0 0.00 0.00 0.00 52 1008.2
20260503234318 51 301 2.0 5.0 0.00 0.00 0.00 51 1008.2
20260503233829 51 308 2.0 12.0 0.00 0.00 0.00 51 1008.2
20260503233330 52 306 7.0 12.0 0.00 0.00 0.00 51 1008.1
20260503232838 52 309 3.0 12.0 0.00 0.00 0.00 51 1008.2
20260503232319 52 316 8.0 12.0 0.00 0.00 0.00 51 1008.2
20260503231825 52 271 4.0 10.0 0.00 0.00 0.00 51 1008.1
20260503231317 52 268 3.0 14.0 0.00 0.00 0.00 52 1008.2
20260503230824 51 286 7.0 14.0 0.00 0.00 0.00 52 1008.3
20260503230314 51 293 4.0 14.0 0.00 0.00 0.00 52 1008.3
20260503225823 51 302 5.0 12.0 0.00 0.00 0.00 52 1008.3
20260503225332 51 273 6.0 12.0 0.00 0.00 0.00 51 1008.3
20260503224822 51 250 5.0 12.0 0.00 0.00 0.00 51 1008.2
20260503224330 51 314 6.0 16.0 0.00 0.00 0.00 51 1008.2
20260503223816 51 279 12.0 18.0 0.00 0.00 0.00 51 1008.2
20260503223325 51 267 12.0 18.0 0.00 0.00 0.00 50 1008.1
20260503222833 51 300 7.0 18.0 0.00 0.00 0.00 50 1008.2
20260503222323 51 267 11.0 18.0 0.00 0.00 0.00 49 1008.1
20260503221832 52 253 5.0 16.0 0.00 0.00 0.00 49 1008.1
20260503221322 52 273 7.0 15.0 0.00 0.00 0.00 50 1008.1
20260503220828 51 296 6.0 15.0 0.00 0.00 0.00 49 1008.1
20260503220318 52 226 10.0 19.0 0.00 0.00 0.00 48 1008.1
20260503215822 52 326 6.0 19.0 0.00 0.00 0.00 48 1008.2
20260503215330 52 296 9.0 15.0 0.00 0.00 0.00 48 1008.2
20260503214819 52 317 10.0 17.0 0.00 0.00 0.00 47 1008.2
20260503214327 52 344 9.0 17.0 0.00 0.00 0.00 46 1008.1
20260503213836 52 306 7.0 13.0 0.00 0.00 0.00 45 1008.1
20260503213319 52 325 6.0 13.0 0.00 0.00 0.00 45 1007.9
20260503212828 52 327 5.0 17.0 0.00 0.00 0.00 45 1007.9
20260503212317 52 303 7.0 18.0 0.00 0.00 0.00 44 1008.0
20260503211822 52 315 11.0 18.0 0.00 0.00 0.00 43 1007.8
20260503211349 52 293 7.0 22.0 0.00 0.00 0.00 43 1007.9
20260503210817 52 307 11.0 22.0 0.00 0.00 0.00 43 1007.8
20260503210326 52 277 9.0 19.0 0.00 0.00 0.00 42 1007.8
20260503205814 52 302 10.0 19.0 0.00 0.00 0.00 41 1007.9
20260503205336 52 310 7.0 18.0 0.00 0.00 0.00 41 1006.9
20260503204825 52 290 8.0 19.0 0.00 0.00 0.00 40 1006.8
20260503204330 52 249 13.0 19.0 0.00 0.00 0.00 39 1006.9
20260503203816 52 281 12.0 17.0 0.00 0.00 0.00 39 1006.8
20260503203328 52 276 11.0 16.0 0.00 0.00 0.00 38 1006.9
20260503202814 53 348 11.0 16.0 0.00 0.00 0.00 38 1006.9
20260503202321 54 281 12.0 15.0 0.00 0.00 0.00 38 1006.8
20260503201828 53 254 9.0 16.0 0.00 0.00 0.00 37 1006.9
20260503201335 53 315 11.0 21.0 0.00 0.00 0.00 37 1007.1
20260503200838 53 339 8.0 21.0 0.00 0.00 0.00 37 1007.0
20260503200322 53 291 9.0 18.0 0.00 0.00 0.00 36 1007.2
20260503195828 53 301 7.0 15.0 0.00 0.00 0.00 36 1007.2
20260503195315 53 317 5.0 17.0 0.00 0.00 0.00 36 1007.3
20260503194843 53 351 10.0 17.0 0.00 0.00 0.00 36 1007.4
20260503194328 53 243 5.0 16.0 0.00 0.00 0.00 37 1007.4
20260503193833 53 314 9.0 16.0 0.00 0.00 0.00 37 1007.5
20260503193315 53 308 10.0 14.0 0.00 0.00 0.00 38 1007.6
20260503192825 52 311 4.0 16.0 0.00 0.00 0.00 39 1007.6
20260503192330 51 339 11.0 16.0 0.00 0.00 0.00 39 1007.7
20260503191821 51 265 7.0 18.0 0.00 0.00 0.00 39 1007.8
20260503191326 51 328 8.0 19.0 0.00 0.00 0.00 38 1007.7
20260503190818 51 286 13.0 19.0 0.00 0.00 0.00 39 1007.8
20260503190346 51 334 9.0 17.0 0.00 0.00 0.00 38 1007.9
20260503185830 51 319 5.0 20.0 0.00 0.00 0.00 39 1008.0
20260503185317 51 295 9.0 20.0 0.00 0.00 0.00 41 1008.0
20260503184826 50 286 11.0 17.0 0.00 0.00 0.00 41 1008.2
20260503184333 50 338 6.0 17.0 0.00 0.00 0.00 41 1008.2
20260503183839 50 355 13.0 17.0 0.00 0.00 0.00 41 1008.2
20260503183323 50 291 9.0 17.0 0.00 0.00 0.00 41 1008.4
20260503182828 50 331 10.0 19.0 0.00 0.00 0.00 42 1008.4
20260503182330 50 338 6.0 22.0 0.00 0.00 0.00 42 1008.4
20260503181837 50 251 10.0 23.0 0.00 0.00 0.00 43 1008.4
20260503181324 50 201 10.0 23.0 0.00 0.00 0.00 42 1008.5
20260503180828 49 295 12.0 18.0 0.00 0.00 0.00 44 1008.5
20260503180317 48 283 6.0 17.0 0.00 0.00 0.00 44 1008.5
20260503175843 48 297 8.0 13.0 0.00 0.00 0.00 44 1008.5
20260503175329 49 337 8.0 16.0 0.00 0.00 0.00 45 1008.7
20260503174834 48 254 11.0 16.0 0.00 0.00 0.00 44 1008.8
20260503174320 48 336 8.0 16.0 0.00 0.00 0.00 44 1008.7
20260503173826 48 320 8.0 16.0 0.00 0.00 0.00 43 1008.7
20260503173334 48 300 7.0 19.0 0.00 0.00 0.00 44 1008.8
20260503172821 48 236 11.0 19.0 0.00 0.00 0.00 43 1008.7
20260503172326 48 343 9.0 15.0 0.00 0.00 0.00 45 1008.9
20260503171832 47 328 3.0 14.0 0.00 0.00 0.00 43 1008.8
20260503171324 48 289 8.0 16.0 0.00 0.00 0.00 45 1008.9
20260503170827 48 308 11.0 18.0 0.00 0.00 0.00 45 1008.9
20260503170353 48 306 10.0 18.0 0.00 0.00 0.00 43 1008.9
20260503150842 42 266 5.0 15.0 0.00 0.00 0.00 58 1009.9
20260503150330 42 301 7.0 18.0 0.00 0.00 0.00 57 1009.9
20260503131344 41 322 11.0 16.0 0.00 0.00 0.00 63 1009.9
20260503130820 41 317 5.0 14.0 0.00 0.00 0.00 65 1009.9
20260503130330 41 315 7.0 14.0 0.00 0.00 0.00 66 1010.0
20260503110817 36 321 2.0 7.0 0.00 0.00 0.00 86 1009.6
20260503110318 36 338 4.0 7.0 0.00 0.00 0.00 88 1009.5
20260503090315 33 254 0.0 1.0 0.00 0.00 0.00 90 1009.9